GFSMW_sfc_thetae_015.txt.gz
Theta_e
306 305 304 304 304 304 304 306 307 309 310 313 315 317 318 320 320 321 321 319 317 314 311 307 306 303 301 300 300 300 299 299 298 296 296 295 296 296 297 297 296 295 296
302 301 301 301 300 300 301 302 304 306 307 310 313 314 315 317 317 318 318 317 316 313 309 306 304 302 300 300 299 299 297 298 297 297 296 291 291 294 295 295 294 294 295
299 299 299 299 299 298 299 300 301 303 305 307 309 311 312 308 310 312 313 313 313 312 309 306 304 302 300 299 299 298 297 295 296 299 299 295 294 291 294 293 293 293 293
299 298 298 297 297 298 299 299 299 300 301 304 305 305 305 303 306 306 309 309 310 310 308 306 304 302 300 299 299 298 298 298 293 295 296 297 298 293 287 292 292 292 291
297 297 297 297 297 298 298 299 298 297 298 300 301 301 301 303 305 304 303 305 306 306 307 305 303 301 300 299 298 297 297 298 296 293 294 293 294 296 295 288 288 291 291
297 296 297 297 296 297 297 298 297 296 297 297 297 298 298 299 300 301 300 302 303 304 304 303 302 301 300 298 298 297 296 296 297 295 295 293 292 290 293 292 289 287 289
296 295 295 294 294 294 295 294 294 294 296 296 296 295 295 296 297 298 299 300 300 300 300 301 300 299 299 298 298 297 295 296 295 296 295 295 295 295 294 294 290 288 288
294 294 294 293 293 293 293 293 292 291 293 294 295 295 295 294 295 295 296 297 298 299 301 299 299 298 298 297 297 296 295 295 295 295 295 294 294 294 294 293 289 287 286
292 292 293 293 292 292 292 291 291 290 290 291 293 293 293 294 293 294 294 294 295 295 296 298 297 296 297 296 295 294 293 293 294 293 294 293 293 293 293 293 292 289 284
290 291 291 292 291 291 291 291 290 289 289 289 290 290 291 291 292 293 292 293 293 293 293 294 295 294 294 294 294 293 292 292 292 292 292 292 292 291 292 292 292 292 290
288 290 289 290 289 289 289 289 288 288 287 288 289 289 289 288 288 288 289 291 291 291 291 291 291 292 292 293 292 291 291 290 290 290 290 290 290 290 290 289 289 289 290
285 287 288 287 287 287 287 286 287 287 287 286 287 287 288 287 286 286 286 288 288 290 290 290 290 290 290 291 291 289 289 289 289 289 288 288 287 288 288 288 287 287 287
284 285 287 286 286 286 286 286 285 285 286 285 286 286 286 286 285 285 285 286 286 287 288 288 288 288 289 289 289 289 288 288 289 288 288 287 287 286 287 287 286 286 283
283 284 285 286 286 286 285 285 285 285 286 285 284 284 285 285 284 284 284 285 285 285 285 286 287 287 287 287 287 287 287 287 288 288 288 287 286 286 286 285 285 285 284
282 283 283 284 285 286 285 285 285 285 285 284 284 283 284 284 284 283 282 283 284 284 285 284 285 285 286 285 286 286 285 285 286 287 286 287 286 287 287 286 286 285 284
282 283 283 284 284 285 285 285 284 285 285 283 283 283 282 282 282 281 281 281 282 283 283 283 283 283 284 287 288 287 285 285 284 284 286 285 285 286 288 289 290 287 285
283 282 283 284 284 284 285 285 284 284 283 282 282 282 281 281 281 280 279 279 279 281 280 281 282 282 283 286 287 288 285 285 284 284 284 284 284 284 284 288 289 289 290
283 283 284 284 285 285 285 284 283 282 281 281 280 281 281 279 280 279 278 277 278 278 279 279 280 281 282 285 286 287 286 285 285 285 284 283 284 284 283 283 284 285 285
284 285 285 285 284 284 284 282 280 280 279 279 279 279 279 278 278 276 276 276 276 276 276 278 278 278 280 283 284 284 284 284 284 285 285 284 284 286 287 282 282 283 283
285 285 285 284 283 283 282 279 278 277 277 277 278 278 277 276 276 276 275 276 275 275 275 275 276 276 276 280 283 283 283 283 283 284 284 285 285 286 287 283 282 281 282
285 284 283 281 281 280 278 276 275 274 275 275 275 274 274 274 274 273 274 273 272 272 271 272 273 273 275 277 281 283 282 282 282 283 283 284 287 287 287 287 282 282 283
282 281 278 278 277 276 275 272 272 273 272 270 269 268 268 269 269 268 269 269 269 268 268 269 270 272 274 277 280 282 283 284 282 282 283 284 287 286 287 286 285 285 285
278 276 274 273 273 272 271 269 269 269 267 265 264 264 264 264 265 265 265 265 266 266 266 267 267 269 272 275 279 281 283 283 282 283 284 286 286 286 285 286 286 284 282
274 273 271 269 268 269 269 267 267 266 263 262 262 262 262 262 263 264 264 263 263 263 264 264 265 267 269 271 274 277 280 281 281 282 282 284 285 285 283 281 284 282 281
271 270 268 266 266 267 266 265 264 263 261 261 261 261 262 262 262 263 263 263 263 264 262 263 264 264 265 268 273 275 277 279 279 279 280 281 282 279 279 279 280 281 280
268 266 265 265 264 264 263 263 263 262 260 260 260 260 260 261 261 261 262 266 267 269 269 270 269 268 271 273 274 275 276 278 280 279 277 279 279 277 277 278 278 279 279

GFSMW_sfc_thetae_021.txt.gz
Theta_e
294 294 294 294 294 294 294 295 296 297 299 302 305 306 307 309 311 315 317 317 316 314 308 304 303 300 299 296 293 291 291 289 288 288 287 287 288 289 289 289 289 290 291
292 293 293 293 292 292 293 293 294 295 296 299 301 303 302 301 304 309 312 314 313 313 309 304 301 298 295 293 292 292 289 290 289 287 285 283 285 287 289 288 288 288 289
291 291 291 290 291 291 291 293 293 294 294 295 297 299 299 298 299 300 304 307 310 310 308 305 301 299 298 294 293 291 291 289 288 289 288 283 283 283 286 287 287 287 287
291 290 290 290 289 289 290 291 293 293 293 293 292 292 292 292 294 295 296 297 300 304 306 305 302 299 297 295 292 293 291 289 287 287 290 288 287 283 282 285 285 286 286
289 289 289 290 290 289 287 288 290 291 292 292 291 290 289 290 291 292 292 293 295 299 300 300 302 299 297 295 294 293 290 289 289 288 286 286 286 286 283 280 282 284 285
288 289 290 289 288 288 287 287 287 288 290 290 289 289 289 289 289 289 289 290 291 293 293 295 296 298 298 295 294 294 293 292 289 288 287 287 286 284 284 281 280 281 282
287 287 287 287 286 285 285 287 285 285 286 287 287 286 287 288 288 288 288 287 288 289 289 289 290 292 294 293 292 290 289 290 291 290 290 290 288 286 286 284 281 281 282
287 287 286 286 286 285 285 284 284 284 285 285 285 285 285 285 285 285 286 286 287 287 288 288 288 289 290 291 291 289 288 288 289 290 290 290 290 287 286 286 282 280 280
285 287 286 285 285 285 284 283 283 283 283 284 284 284 284 283 282 282 283 284 284 286 286 286 286 287 287 287 288 287 286 286 286 288 288 289 289 287 287 286 284 284 280
285 285 285 284 284 284 284 284 284 282 282 283 284 284 284 283 282 282 281 281 283 283 283 284 285 285 285 285 285 285 285 285 285 286 285 287 287 287 287 288 285 284 288
283 284 283 283 283 284 284 283 283 284 283 283 284 284 284 283 282 280 281 281 281 282 282 283 282 282 283 284 284 284 284 284 285 285 284 285 285 287 288 284 285 286 283
282 286 285 284 284 284 284 283 283 283 284 284 283 283 283 283 281 281 280 280 279 280 281 282 281 282 282 282 282 283 283 284 284 285 284 285 286 284 286 287 286 286 284
281 282 282 281 280 280 281 280 281 282 283 283 282 282 280 280 281 281 281 281 281 280 280 280 280 280 281 281 281 281 282 283 284 285 285 285 285 284 285 284 286 287 286
282 279 279 279 280 280 280 280 280 280 281 280 279 279 278 279 280 279 279 279 280 279 279 279 279 280 280 281 281 281 282 282 283 283 284 285 285 285 285 285 285 286 286
280 280 279 279 279 279 280 281 281 281 280 279 279 279 279 279 279 278 278 278 278 279 278 278 279 279 279 280 279 280 281 281 282 283 283 284 285 286 287 285 285 285 285
280 279 279 280 280 280 280 281 280 280 280 278 278 278 278 279 278 279 279 279 278 278 278 277 277 276 278 281 282 282 280 281 281 281 283 283 283 285 288 289 290 288 285
279 279 279 280 280 280 280 279 279 278 276 275 275 276 276 277 277 277 277 276 276 276 275 276 276 276 276 280 281 281 279 279 279 280 281 282 283 283 284 286 289 289 290
280 280 279 279 279 280 278 278 278 276 276 274 273 273 275 273 274 273 273 273 273 272 273 273 274 274 275 279 279 280 277 277 277 278 279 280 281 282 283 283 283 284 285
279 279 279 280 278 276 276 276 275 275 274 273 273 273 271 269 269 268 268 269 269 268 268 270 270 270 271 275 276 276 275 275 275 276 276 277 278 282 284 282 281 282 283
280 279 279 277 276 274 274 273 272 271 270 271 271 270 269 266 266 266 265 265 265 266 266 266 266 266 266 270 272 273 271 270 272 273 275 277 277 280 282 281 281 280 281
279 277 276 275 273 273 272 270 270 268 269 269 268 266 266 264 263 263 264 263 262 263 262 263 263 264 265 266 270 272 271 270 270 271 272 274 278 280 281 283 282 282 283
276 275 274 273 272 272 269 268 267 269 266 265 264 263 262 262 263 261 261 261 261 260 260 260 261 263 265 267 269 271 272 272 268 268 270 272 276 278 281 281 284 286 286
275 273 270 270 270 267 267 265 266 265 264 259 258 259 260 261 261 260 259 260 260 260 260 261 260 261 264 264 268 270 271 271 268 269 270 273 274 276 279 281 283 283 283
271 269 266 264 263 264 266 263 263 263 256 255 259 261 260 259 260 260 260 259 259 259 259 260 260 261 263 265 266 265 265 268 268 269 268 269 272 274 276 276 281 282 282
269 267 265 264 263 264 262 260 262 258 257 258 260 260 260 259 259 260 259 260 262 263 263 264 265 265 265 267 271 272 271 270 270 268 266 266 268 270 271 272 278 279 280
267 265 263 262 260 258 258 258 255 254 255 258 260 259 259 259 259 259 259 264 267 268 270 271 270 268 272 273 274 274 275 275 276 270 268 267 267 268 269 271 274 275 276

GFSMW_sfc_thetae_024.txt.gz
Theta_e
292 292 292 291 292 292 292 293 293 294 296 297 301 303 304 304 305 313 314 316 317 313 311 310 308 305 303 302 298 292 291 289 288 287 286 286 287 288 288 289 289 289 290
289 290 289 289 289 290 291 292 292 292 293 295 296 299 298 298 299 303 305 305 311 313 310 307 305 303 300 298 295 294 289 289 288 286 284 283 285 287 288 288 288 287 288
287 287 288 287 287 287 289 290 291 292 292 292 293 294 294 294 294 294 296 297 300 305 307 307 303 301 300 298 296 294 293 290 288 287 287 281 282 282 285 286 287 287 286
287 288 287 286 286 285 287 289 290 290 291 291 290 289 289 288 289 290 291 292 293 294 296 299 303 301 298 298 296 295 294 292 290 287 289 287 285 282 282 284 285 286 286
286 286 286 287 286 285 285 285 287 287 288 288 289 289 288 288 289 289 289 289 290 291 290 291 292 296 299 297 295 294 292 292 291 289 286 285 285 284 283 282 282 283 285
286 286 287 286 285 284 283 284 285 285 285 285 285 285 285 285 285 285 285 286 288 289 288 289 289 290 291 293 295 294 293 293 292 291 289 288 285 284 284 281 281 281 283
285 285 285 284 284 283 282 284 284 283 284 284 283 283 283 282 282 283 283 283 283 285 285 286 286 287 288 289 290 291 292 292 292 292 292 291 290 288 286 284 281 281 282
286 285 285 284 283 283 282 281 282 282 283 283 283 283 282 282 282 282 282 282 282 283 284 284 285 285 286 286 287 287 287 287 289 289 290 291 292 289 290 288 284 282 280
286 285 284 283 283 282 282 281 281 281 282 283 283 282 282 281 280 280 280 281 281 283 282 282 282 283 283 284 284 284 284 284 284 285 286 287 289 288 289 289 289 287 284
284 284 283 283 283 283 282 282 281 280 281 281 282 282 282 281 281 280 279 279 279 280 280 281 281 282 281 281 281 282 283 283 283 285 284 284 285 286 287 289 289 287 287
283 283 282 282 282 281 281 281 281 281 281 281 281 281 281 282 281 280 280 280 279 279 280 280 280 280 280 280 280 280 280 281 282 282 283 283 284 284 285 283 286 288 287
282 283 281 281 281 281 281 281 281 281 281 281 281 280 281 280 279 280 280 279 280 281 279 279 279 279 279 280 279 279 279 279 280 281 282 282 285 282 283 283 283 283 285
281 283 281 280 280 279 280 279 280 281 281 281 280 279 279 278 278 279 279 279 279 279 279 279 278 278 278 278 279 279 279 280 280 281 281 281 282 282 284 284 284 284 285
281 280 279 278 279 278 279 279 279 279 280 279 279 278 278 278 277 278 277 277 278 277 278 278 278 278 278 278 278 278 278 279 280 281 281 282 281 282 282 284 285 285 284
280 279 279 278 278 278 279 280 280 280 280 279 278 278 278 278 277 277 277 277 278 277 277 277 277 277 277 278 277 278 278 278 278 279 280 281 282 284 285 283 284 285 285
281 279 279 279 279 278 279 279 279 279 279 277 276 277 276 276 276 276 276 276 275 274 274 274 274 274 276 279 280 280 278 278 277 277 278 279 280 282 285 286 287 287 284
278 279 278 279 279 278 279 278 278 277 275 274 273 273 274 273 274 273 272 272 271 271 271 271 271 271 272 276 277 278 276 276 276 276 277 277 278 280 280 283 285 285 287
279 278 278 278 278 278 277 277 276 275 274 272 270 271 272 270 270 270 269 269 269 268 268 268 268 268 269 273 274 274 272 272 272 273 275 276 276 277 277 278 278 280 282
279 279 278 278 277 276 275 275 274 274 273 272 272 270 269 266 267 265 266 266 266 265 265 266 265 265 265 270 271 272 270 270 270 271 272 272 273 276 278 276 275 276 278
279 279 279 277 275 274 274 273 272 270 269 270 270 269 267 263 264 264 264 264 263 264 265 264 264 264 263 267 270 271 268 267 268 270 271 273 273 276 277 275 274 273 275
279 278 277 275 274 273 272 270 269 268 268 268 267 265 265 263 263 262 263 262 261 262 261 261 262 262 263 264 269 271 269 268 267 267 269 270 273 274 275 276 274 275 278
278 277 274 273 272 271 269 268 267 268 265 264 263 262 260 261 262 259 260 260 259 259 259 260 261 262 264 266 268 271 272 272 269 268 269 269 272 274 275 274 275 277 278
276 275 272 271 270 268 267 265 265 264 263 258 256 256 258 260 261 259 259 258 259 258 259 259 259 261 263 264 269 271 272 272 269 269 270 274 275 275 274 274 274 273 273
273 269 267 266 266 266 267 263 262 262 254 251 256 259 258 259 259 260 260 259 258 258 259 259 260 262 264 266 268 268 268 271 271 271 269 271 273 274 274 272 272 272 272
270 268 266 266 265 265 264 261 261 257 255 255 258 258 258 257 259 260 259 260 262 263 263 264 266 265 265 267 272 273 271 272 273 274 273 269 265 265 265 266 269 271 271
267 265 264 263 262 261 261 260 256 253 252 256 258 258 259 259 259 259 259 264 267 268 270 271 270 268 271 273 274 274 275 276 276 273 271 270 270 269 268 267 267 268 269

GFSMW_sfc_thetae_027.txt.gz
Theta_e
289 289 289 289 289 290 291 291 291 292 294 295 298 300 297 297 297 299 299 302 307 311 311 311 310 308 308 305 302 297 295 293 291 288 287 287 287 287 288 288 288 289 290
286 287 287 286 286 287 289 290 290 291 291 292 293 295 294 294 293 295 295 295 296 298 303 305 305 304 303 301 299 296 294 293 291 290 285 285 286 286 287 287 288 287 288
285 285 285 284 284 284 285 288 288 289 290 291 292 292 291 290 290 290 291 291 292 292 294 295 300 301 301 300 298 296 295 294 291 290 291 286 282 282 285 285 286 286 286
285 285 284 283 283 283 284 285 286 286 288 289 289 288 287 286 287 287 288 289 289 289 290 291 292 293 297 297 297 297 294 293 292 290 290 289 288 285 284 284 284 285 286
284 284 283 284 283 283 282 283 284 284 284 284 285 285 283 284 284 284 284 285 286 286 286 287 288 288 289 290 293 294 294 293 292 291 290 288 288 286 285 285 283 284 285
284 284 284 284 282 282 282 282 283 283 283 283 283 282 281 281 281 281 281 282 283 284 284 285 285 286 286 287 288 289 291 292 292 292 290 289 288 287 286 285 285 284 284
283 283 282 281 281 280 281 282 282 282 282 282 282 281 280 280 280 280 280 280 281 281 282 283 283 283 284 284 285 285 286 287 288 290 291 292 290 289 288 287 288 285 283
284 283 283 282 281 280 280 281 281 281 281 281 281 280 280 280 280 279 279 280 280 280 281 281 281 281 282 282 282 282 282 283 283 284 285 288 290 291 289 288 286 286 288
284 283 283 282 281 280 280 279 280 280 281 281 280 280 280 279 279 279 279 278 279 281 280 279 279 280 280 280 280 280 279 280 281 282 283 283 285 286 288 290 288 287 284
284 283 282 282 282 281 280 280 280 279 280 280 280 280 280 280 279 278 278 278 278 278 279 278 278 279 279 280 280 279 279 279 279 280 281 281 282 284 284 285 287 287 286
282 283 281 282 281 281 280 280 280 280 280 280 280 279 279 279 279 278 278 278 278 278 279 279 279 278 278 278 278 278 278 278 278 279 278 280 281 282 282 282 283 284 285
283 282 281 280 280 280 280 280 281 280 280 280 279 280 279 278 278 278 278 278 278 278 278 279 278 278 278 278 277 277 277 277 277 278 279 279 281 279 280 281 281 282 284
282 281 280 279 280 279 280 279 280 280 280 280 279 279 278 277 277 277 277 278 277 277 277 278 277 277 277 277 277 277 277 277 277 278 278 278 279 279 280 280 281 281 283
281 281 279 279 279 278 278 278 278 279 280 279 278 278 277 277 277 277 276 276 276 276 275 275 275 275 276 276 276 276 276 277 277 278 278 278 278 278 279 280 280 281 281
280 280 281 279 277 277 278 278 278 278 278 278 278 277 277 276 276 275 275 274 274 274 273 273 273 273 274 275 275 275 275 276 276 277 278 278 278 281 281 280 280 280 280
282 280 279 279 278 278 278 278 278 279 278 276 275 275 275 275 274 273 272 272 272 271 271 271 270 270 272 274 276 275 274 274 274 274 275 276 277 278 280 281 282 282 280
282 280 279 279 279 278 279 277 277 277 274 273 271 271 272 271 271 270 270 270 269 269 268 268 268 268 268 272 274 274 272 271 271 271 272 273 274 275 276 278 280 280 282
278 278 278 278 278 278 277 277 276 274 273 271 270 270 270 268 268 268 267 267 267 266 266 266 266 266 267 271 272 273 271 270 270 270 270 271 271 272 273 273 273 274 275
278 279 279 278 277 277 276 275 274 273 272 271 271 270 268 265 266 263 264 265 265 264 264 265 264 263 264 269 271 271 269 269 268 269 270 270 270 273 275 273 271 272 273
279 279 278 277 276 275 275 273 272 270 269 271 270 268 267 262 262 263 263 263 262 264 264 264 263 263 262 267 269 270 268 267 268 269 270 272 272 274 275 273 271 269 271
279 278 277 276 275 273 272 271 270 268 269 268 267 265 265 262 261 261 262 261 260 262 260 261 261 261 263 263 269 271 269 268 268 268 269 270 273 274 275 276 272 271 273
278 279 276 274 272 272 270 269 268 268 266 265 263 262 258 259 261 255 258 258 258 258 258 258 259 261 263 266 268 271 272 273 269 268 269 270 273 275 276 276 277 278 277
277 277 274 272 271 269 268 267 267 266 263 261 256 254 257 259 259 255 258 258 256 256 258 259 259 260 263 264 269 271 272 273 271 271 272 276 276 277 276 276 276 274 271
274 272 270 269 267 265 267 265 265 264 258 258 256 258 256 257 257 260 260 258 257 257 259 259 259 262 265 267 268 268 269 272 273 273 272 273 275 276 275 273 273 272 271
271 270 270 269 266 265 264 262 263 260 257 258 259 257 256 256 257 259 259 260 261 262 263 265 266 265 265 267 272 273 271 272 273 274 271 270 270 270 271 268 268 268 268
269 268 266 265 263 262 261 261 258 257 257 258 259 257 257 257 258 258 258 263 267 269 270 271 270 268 271 272 273 274 275 275 274 268 263 263 264 265 266 266 267 269 269

GFSMW_sfc_thetae_030.txt.gz
Theta_e
286 286 286 286 286 288 289 289 290 291 293 293 295 295 292 293 293 295 295 295 296 298 300 304 304 305 304 303 303 299 298 298 293 293 293 291 290 288 288 288 288 288 289
284 285 285 284 284 284 286 287 288 289 291 291 291 291 291 290 290 292 290 290 291 292 294 296 298 299 300 300 299 297 296 295 293 292 289 290 289 287 287 286 287 287 287
283 283 283 282 282 282 282 284 285 286 288 289 290 290 289 287 286 286 286 286 286 288 289 290 291 293 295 295 296 296 296 294 294 291 291 289 287 286 286 286 286 286 286
283 283 282 281 281 281 282 283 283 284 285 286 285 284 283 282 282 282 283 284 284 285 285 286 287 288 288 288 290 294 294 293 291 292 291 289 288 287 286 286 287 285 286
283 282 281 282 281 281 280 281 282 282 282 282 283 282 281 281 281 281 281 282 282 283 284 284 284 284 285 285 286 287 288 291 290 291 290 289 288 288 286 285 286 287 286
282 282 282 282 281 281 281 281 281 281 281 281 281 280 279 279 280 279 280 280 281 281 281 282 282 282 282 282 283 283 284 285 287 288 288 289 288 288 287 286 288 288 288
282 282 281 279 279 280 280 281 280 280 280 280 280 279 279 279 278 278 278 278 278 279 279 280 280 280 280 281 281 281 281 281 282 283 285 287 288 289 288 287 287 287 288
283 282 281 280 279 279 279 280 280 279 280 279 279 279 279 278 278 278 278 277 278 278 278 278 278 278 279 279 279 279 279 279 279 279 280 283 285 286 287 286 284 283 286
283 283 282 280 279 279 279 279 279 279 279 279 279 278 278 278 277 277 277 277 278 279 278 278 277 278 278 278 278 277 277 277 278 278 279 280 281 283 284 285 284 283 282
283 282 282 281 280 280 279 278 279 279 279 279 279 278 278 278 277 277 277 277 278 278 278 278 277 277 277 277 277 276 277 276 277 278 277 278 279 280 281 282 282 283 283
284 283 282 282 281 280 279 278 278 278 278 279 278 279 278 277 278 277 277 277 277 277 278 278 277 277 277 276 276 275 276 276 276 276 277 277 278 278 279 280 281 281 281
283 283 282 281 280 280 280 279 279 279 279 279 278 279 278 278 277 277 277 277 277 277 277 277 277 276 276 276 275 275 275 275 275 276 276 276 279 277 278 278 278 279 280
283 282 281 279 279 278 279 279 279 279 280 279 278 278 278 277 276 276 277 277 276 276 275 275 274 274 274 274 275 275 275 276 276 276 276 276 276 276 277 277 277 278 280
283 281 279 278 278 278 279 278 278 278 279 279 278 277 277 276 276 276 275 275 274 273 273 273 273 273 273 273 274 274 274 274 274 275 275 276 276 276 276 276 277 278 278
282 280 280 279 279 278 278 278 277 277 278 277 277 277 276 275 275 274 273 272 272 272 272 271 271 271 271 273 273 273 273 273 273 273 273 274 275 277 278 277 277 277 276
283 282 281 281 280 278 278 278 277 277 277 277 276 275 274 274 272 272 271 271 271 270 270 269 269 268 270 273 275 275 273 272 271 270 271 272 272 274 276 277 278 279 277
283 283 280 280 280 279 279 277 277 277 275 274 271 271 271 271 270 270 269 269 268 268 267 267 267 267 267 272 274 274 272 271 270 270 270 270 271 271 271 273 275 275 277
280 282 280 278 278 278 277 277 277 275 274 272 270 270 270 268 268 267 266 266 266 266 265 265 265 266 267 271 272 273 271 270 269 269 269 269 270 270 271 271 271 272 273
278 278 278 278 276 277 277 276 274 274 273 271 271 269 268 265 266 263 264 264 264 264 263 265 263 263 263 269 271 271 270 269 269 269 270 270 269 272 274 272 271 272 273
278 278 278 278 276 276 276 274 273 271 270 271 271 269 267 262 262 264 262 262 261 264 264 264 263 262 262 267 270 271 269 267 268 269 270 272 272 275 276 273 271 270 271
278 278 277 277 276 275 273 272 271 270 269 269 267 266 265 262 261 260 261 259 259 261 259 260 261 261 262 263 269 272 271 269 269 269 270 271 274 275 276 277 273 272 274
278 278 277 276 275 273 273 271 270 269 267 265 265 264 262 260 262 254 256 255 256 255 256 257 259 261 263 266 269 272 273 274 270 270 271 271 275 276 278 278 279 279 278
277 277 276 275 272 271 271 270 268 266 264 262 262 259 259 261 261 256 257 256 254 254 257 259 259 261 263 264 270 272 273 274 272 272 274 276 277 277 276 276 277 276 274
275 273 270 270 269 267 269 266 265 264 260 257 260 261 260 260 260 261 260 255 255 256 258 258 259 261 265 267 267 268 271 273 272 274 273 272 272 272 272 270 271 271 270
273 270 271 272 271 267 265 263 263 261 258 258 260 261 260 259 259 259 259 259 260 260 258 261 265 265 264 266 272 273 271 272 273 270 266 262 262 263 264 265 266 266 266
270 269 269 269 266 265 263 260 259 259 258 259 261 261 260 259 259 259 258 263 267 269 271 272 270 267 271 272 273 274 274 273 271 262 257 258 259 260 261 261 262 263 264

GFSMW_sfc_thetae_033.txt.gz
Theta_e
287 287 287 287 287 288 289 290 292 293 296 297 297 295 292 292 291 291 291 292 294 296 298 301 301 304 302 302 302 302 301 300 297 296 298 297 296 295 296 296 295 296 296
285 285 285 285 285 285 286 287 288 290 292 293 293 293 291 289 288 288 288 288 289 291 292 293 294 295 296 297 298 299 300 300 297 296 294 294 299 295 295 295 294 295 294
284 284 284 283 284 283 283 285 286 287 288 290 291 290 288 287 286 286 286 286 287 287 289 288 289 290 291 291 292 295 295 295 297 296 296 295 292 292 299 296 294 294 294
284 283 283 282 282 282 283 284 284 285 285 287 286 285 284 282 283 284 284 285 285 285 286 286 286 287 287 286 288 289 291 294 292 296 295 294 292 290 290 294 297 295 294
283 282 282 282 282 283 282 283 283 283 283 284 285 284 282 283 283 283 283 283 284 284 284 284 284 284 285 285 285 285 285 287 287 289 291 292 293 292 288 288 291 295 296
283 283 283 282 282 282 282 282 282 282 282 282 282 282 282 282 282 282 282 282 282 282 282 283 283 283 283 283 283 283 284 284 284 285 286 287 288 288 288 288 289 289 293
283 282 281 281 281 281 282 282 282 281 281 282 281 281 281 281 280 280 281 281 281 281 281 281 281 282 282 282 282 282 282 282 282 282 282 284 284 286 286 286 285 286 288
283 283 281 281 281 281 282 281 281 280 281 281 281 281 281 281 280 280 280 280 280 281 281 281 281 281 281 281 281 281 281 281 281 280 281 282 282 284 284 283 283 281 283
283 283 282 281 280 280 281 281 280 280 281 280 280 280 280 280 279 280 280 280 280 281 280 280 279 280 280 280 279 279 279 280 280 280 280 280 281 282 282 283 283 282 279
283 283 283 282 281 280 280 281 281 281 280 280 280 280 279 279 280 280 279 279 279 280 279 279 279 279 279 279 278 278 278 278 279 279 279 279 280 280 281 282 282 282 280
284 284 284 283 282 281 280 280 280 280 280 280 280 280 280 280 280 279 279 279 279 279 278 278 278 278 277 277 277 277 277 277 277 278 278 278 279 279 280 280 280 280 280
285 285 284 283 281 281 280 279 279 280 280 280 280 280 280 280 279 278 279 279 278 278 277 276 276 276 276 276 275 275 276 276 276 276 277 277 278 277 278 279 278 279 280
284 284 283 282 282 280 280 279 280 280 281 280 280 279 279 279 278 278 278 277 276 276 275 275 274 274 274 274 274 275 275 275 275 275 275 275 275 275 277 277 277 278 278
285 283 282 282 281 280 280 280 280 280 280 280 279 279 279 278 277 277 276 275 274 274 273 273 273 273 273 273 274 274 274 274 275 274 274 274 273 273 274 275 275 277 277
283 283 283 281 280 279 279 280 280 280 280 279 279 279 279 277 276 275 274 273 273 272 272 272 271 271 271 273 274 274 274 273 273 273 273 273 274 275 275 275 275 275 275
284 284 283 282 280 280 280 280 279 279 279 279 279 278 277 275 274 273 272 272 271 270 270 270 269 269 270 273 275 275 273 273 272 271 272 272 272 273 274 275 276 275 273
282 283 283 282 282 280 281 280 279 278 277 276 275 274 274 273 272 271 270 270 269 269 268 268 268 267 268 272 275 275 273 272 271 270 270 270 271 271 271 272 274 274 275
282 283 284 282 281 281 279 279 278 277 276 275 273 272 272 270 269 269 268 268 267 267 266 266 266 267 267 272 273 274 272 271 270 270 270 270 270 271 272 272 272 273 274
281 281 282 282 279 279 279 277 276 276 275 274 273 272 271 268 268 266 266 266 266 265 264 266 265 264 264 269 272 272 271 270 269 270 271 271 271 272 275 274 273 273 274
279 279 279 278 277 277 277 275 274 273 274 274 273 271 269 265 265 266 265 265 264 265 265 264 264 263 263 267 271 272 271 269 270 271 271 273 274 276 277 274 273 271 272
278 278 278 278 278 276 274 274 273 273 273 271 270 268 267 265 264 263 264 262 261 263 260 261 262 262 263 264 270 272 272 271 271 272 272 272 275 276 277 278 275 274 276
278 279 277 277 277 275 274 273 272 272 270 268 267 265 263 265 263 259 260 259 259 259 258 258 260 263 264 267 270 273 274 275 272 271 273 273 276 278 277 276 276 277 276
277 277 276 276 275 273 273 273 272 269 267 265 263 261 261 262 261 258 259 261 259 258 259 261 261 262 265 266 270 272 273 275 273 274 275 275 274 274 271 272 273 272 270
275 274 272 272 273 270 271 273 268 267 263 261 261 261 260 261 260 263 262 260 259 259 259 259 260 262 263 266 268 269 271 274 274 272 268 269 268 268 268 266 267 267 268
273 271 273 273 274 269 268 266 266 264 262 261 262 261 260 260 261 262 262 262 262 261 257 259 261 261 265 266 272 274 273 273 272 265 262 261 261 261 262 263 263 264 265
270 270 271 270 269 265 264 263 262 263 262 261 261 261 261 261 261 261 261 265 268 269 271 272 272 269 271 272 273 274 274 273 271 261 257 258 259 259 260 260 261 262 263

GFSMW_sfc_thetae_036.txt.gz
Theta_e
292 293 294 295 297 298 300 301 303 304 307 306 304 301 298 297 295 296 297 298 299 301 302 302 302 304 303 304 305 308 307 306 305 307 309 309 306 303 302 305 304 303 301
292 292 292 293 294 295 297 298 298 300 301 301 300 297 294 293 293 293 292 293 293 294 294 296 296 298 298 298 300 301 303 303 303 300 304 303 306 304 306 306 303 302 303
291 291 291 291 293 292 293 294 295 296 297 296 295 293 293 293 291 290 290 290 291 291 292 292 292 292 292 291 292 295 297 298 300 301 299 297 297 297 304 303 302 303 302
291 290 290 290 290 290 291 291 293 293 294 295 294 294 292 288 288 289 289 289 289 289 290 290 290 290 290 289 290 290 290 291 289 296 295 298 296 293 293 299 299 300 298
290 288 288 287 287 289 289 290 290 290 290 291 291 290 289 288 289 288 288 288 288 288 288 288 288 288 288 288 288 288 288 289 288 288 289 290 291 295 288 287 290 292 293
289 288 288 287 287 288 288 289 288 287 289 289 290 289 288 288 287 287 287 287 287 287 287 287 287 287 287 286 287 287 287 287 287 287 287 286 285 285 285 284 285 287 289
288 287 286 286 286 286 287 287 287 286 287 288 288 288 288 288 287 287 287 286 286 286 285 286 285 285 285 285 286 286 286 285 285 285 285 286 285 286 285 284 284 284 287
289 288 287 287 286 286 287 286 286 285 286 287 286 287 287 287 286 286 286 286 285 285 285 285 284 284 284 284 284 284 284 284 284 284 284 284 285 285 285 283 282 281 282
289 288 288 287 286 286 286 286 286 286 286 286 286 286 286 286 285 285 286 285 285 284 284 283 283 283 283 283 283 283 282 283 283 283 283 283 283 284 284 284 284 282 278
289 289 288 287 287 287 287 286 286 286 286 286 286 285 285 285 285 285 284 284 284 283 283 283 282 282 282 282 282 282 282 282 282 282 282 282 282 282 283 283 283 283 281
290 289 289 288 287 287 286 286 286 285 285 286 286 285 285 285 285 285 284 284 283 282 281 281 281 280 280 280 280 280 280 280 280 281 280 280 281 281 281 281 281 281 281
291 290 290 289 286 285 285 285 286 285 286 286 285 285 285 285 284 284 283 283 282 281 280 279 279 279 279 279 278 278 279 278 278 278 278 278 279 278 279 279 279 279 280
291 291 290 289 287 286 285 285 285 285 286 285 285 285 285 284 284 283 282 281 280 279 279 278 278 277 277 277 278 278 278 278 278 278 277 277 277 276 277 277 276 277 277
291 291 290 290 290 288 286 285 285 285 285 285 285 284 285 284 283 282 281 280 279 278 277 277 276 276 276 276 277 277 277 278 278 277 277 276 276 275 275 275 275 276 276
290 290 290 291 290 289 287 286 286 285 285 284 284 284 285 284 282 281 279 278 277 277 276 276 275 275 275 275 276 277 277 277 276 276 276 276 275 275 275 275 275 274 274
290 290 290 290 290 289 288 287 286 285 285 284 284 285 284 282 280 278 277 276 275 274 274 273 273 272 273 273 275 276 276 275 275 274 274 274 275 274 275 275 276 276 274
291 290 290 290 290 289 288 287 286 286 284 283 283 282 282 279 278 277 275 274 274 273 273 272 272 272 272 272 275 275 275 274 274 273 273 273 273 274 273 274 275 275 276
290 290 290 290 289 288 287 287 286 284 282 283 282 281 279 278 276 274 274 273 273 272 272 272 271 271 271 272 273 274 274 274 273 273 273 272 273 273 273 273 274 274 275
289 289 291 290 288 286 286 283 282 282 282 281 281 279 278 276 274 273 273 273 272 271 271 271 270 269 269 271 273 273 273 273 273 273 273 273 273 275 276 276 274 275 276
286 286 286 286 286 285 283 281 281 280 280 281 280 279 277 275 273 273 272 272 271 270 270 270 269 268 267 269 271 273 273 272 273 274 274 276 275 277 278 276 275 274 275
284 283 283 283 283 282 280 280 280 279 281 280 278 276 275 273 273 271 271 270 269 268 267 267 268 267 267 268 271 273 273 273 273 274 274 275 276 277 278 277 275 274 276
281 283 282 281 282 281 280 280 279 281 278 277 275 273 271 272 270 268 268 267 267 266 266 266 267 269 268 269 271 273 274 275 274 273 274 275 276 275 275 274 274 275 274
281 281 281 280 280 279 279 279 281 277 274 273 272 270 269 269 268 267 267 267 267 267 268 267 268 268 269 270 271 272 274 275 274 275 275 274 273 272 271 271 271 270 269
280 279 278 278 278 278 277 279 276 274 271 271 269 268 267 267 266 268 268 268 268 268 268 267 267 268 269 270 271 272 273 274 275 274 270 270 269 269 269 267 268 267 267
279 277 278 278 279 278 277 276 273 271 271 270 269 269 268 266 268 267 269 268 269 268 267 267 267 268 269 270 272 274 274 275 275 271 268 266 265 265 266 266 266 266 266
278 276 276 276 278 276 275 271 270 270 270 269 269 269 269 268 268 268 268 269 270 271 272 273 273 273 272 274 273 274 275 274 272 267 264 263 264 263 264 264 264 265 265

GFSMW_sfc_thetae_042.txt.gz
Theta_e
294 295 297 299 302 304 304 303 302 302 303 302 301 298 295 293 293 294 294 294 295 296 295 294 295 293 292 291 292 296 296 295 294 295 296 301 299 296 298 299 298 299 297
291 294 295 298 300 302 303 304 304 303 304 301 298 294 291 290 290 290 290 291 291 291 291 290 289 289 289 288 288 288 290 289 290 289 293 292 296 293 296 296 292 293 292
291 292 294 295 296 297 300 301 300 298 296 294 293 292 291 289 287 287 287 288 289 289 289 289 288 288 287 286 286 286 286 285 286 286 288 286 284 287 292 288 287 287 287
292 292 293 293 294 293 294 295 296 295 294 293 292 291 289 286 286 285 286 287 287 287 288 287 287 286 286 285 285 286 285 284 282 285 287 284 282 281 282 283 284 286 286
292 291 291 292 290 291 291 291 291 291 292 292 291 289 286 286 286 285 285 285 285 286 286 286 285 285 285 284 284 283 283 283 282 282 282 282 281 281 278 276 279 282 283
291 290 290 289 288 288 288 288 288 289 290 289 289 287 286 285 285 284 283 283 283 284 284 285 284 283 283 283 283 283 282 282 282 281 281 281 279 278 278 276 278 278 280
290 288 286 286 286 286 287 287 286 286 287 287 287 287 286 285 284 284 283 282 282 282 282 282 282 282 282 282 282 281 280 281 280 280 280 281 281 281 280 278 277 276 279
290 287 286 286 286 286 285 285 285 285 286 286 286 286 286 285 284 284 284 283 282 282 282 281 281 281 281 281 281 280 280 280 279 279 279 280 280 281 280 279 277 275 276
289 287 287 286 285 285 285 285 284 285 285 285 284 284 284 284 283 284 283 282 282 283 281 281 280 280 280 280 280 279 278 278 279 278 278 279 279 280 279 279 279 276 273
289 288 287 286 286 285 285 285 285 284 284 284 284 284 284 284 283 283 282 281 280 281 280 280 280 279 279 278 278 278 278 277 277 278 277 277 278 277 277 277 278 277 275
289 288 287 287 286 286 285 285 284 284 284 284 284 283 283 283 283 282 281 281 280 280 279 279 279 278 278 277 277 277 277 276 276 276 276 276 277 275 275 275 275 275 274
290 289 288 287 285 285 285 284 284 284 283 284 283 283 283 282 281 281 281 280 279 279 278 278 278 278 277 277 276 276 276 276 276 276 276 275 278 275 274 274 273 273 273
290 289 288 286 285 285 285 284 284 284 284 283 283 282 281 281 281 280 280 280 279 278 278 277 277 277 277 276 276 276 276 276 276 276 276 275 275 274 274 273 272 273 274
290 289 288 287 286 285 285 284 284 284 283 283 282 281 281 281 280 280 279 279 278 277 277 277 276 276 276 276 276 276 276 276 276 277 276 275 275 274 273 273 273 274 273
290 289 288 287 286 285 285 284 284 284 284 283 282 282 281 281 281 280 279 278 278 277 277 276 275 275 275 276 275 276 275 275 275 275 276 275 275 277 277 275 274 273 272
290 290 290 288 287 285 285 285 284 283 284 282 282 281 282 281 280 279 278 277 277 276 275 275 274 273 275 278 277 277 275 276 275 274 275 274 275 275 277 278 278 277 273
291 290 290 289 289 287 286 285 284 283 282 281 280 281 282 281 279 278 277 276 275 275 274 273 273 273 273 278 278 277 276 275 274 274 275 274 275 274 274 275 277 277 278
291 291 290 290 290 289 287 286 284 282 282 282 281 281 281 279 277 277 276 275 274 273 273 272 273 272 273 278 278 277 275 274 274 274 274 274 273 274 274 274 274 275 276
292 292 292 292 291 289 288 286 284 282 282 281 281 281 280 278 277 276 274 274 273 272 271 272 270 270 270 277 277 276 273 273 273 275 274 274 273 276 278 276 273 273 273
291 290 289 288 288 286 286 284 282 282 281 281 282 281 280 279 277 276 273 272 271 273 273 272 270 269 267 275 277 276 273 267 272 273 275 277 276 278 279 276 272 270 270
286 285 285 285 284 283 282 281 280 281 281 279 279 279 279 279 277 273 271 272 269 272 269 269 268 268 268 268 275 277 274 271 270 271 272 274 277 278 279 278 272 270 274
282 282 282 282 282 281 281 279 280 280 278 278 277 276 275 275 274 272 268 269 269 266 265 264 265 268 269 271 273 276 277 276 271 270 273 273 277 278 277 276 275 275 272
280 280 280 279 279 278 279 279 278 277 276 275 273 269 270 271 271 270 268 266 266 267 266 267 266 267 270 269 275 276 276 277 275 274 274 277 277 276 273 272 273 270 264
278 276 277 276 275 274 276 274 276 274 273 270 270 269 270 268 268 269 268 268 266 266 266 267 267 265 266 267 269 270 270 273 274 274 271 271 274 273 271 267 268 267 266
276 276 276 275 275 273 272 271 273 273 272 271 269 269 268 267 266 267 268 268 266 268 263 264 264 263 264 267 271 270 266 267 270 271 265 261 261 261 262 262 263 264 264
275 274 273 272 271 271 271 270 271 271 271 269 269 268 267 265 266 265 264 274 274 275 276 277 269 263 272 274 276 277 277 278 278 267 257 257 259 261 261 260 261 263 263

GFSMW_sfc_thetae_045.txt.gz
Theta_e
292 294 296 299 300 301 302 301 301 300 301 300 298 295 293 292 292 291 291 292 292 292 291 291 290 289 289 288 289 292 288 287 287 294 296 296 292 295 291 291 288 288 290
290 292 294 297 299 300 302 302 302 302 303 300 297 294 291 289 288 288 288 289 290 290 289 288 288 287 287 286 286 286 286 285 286 287 290 289 293 288 290 286 286 284 286
290 291 293 295 297 298 302 303 303 300 297 294 292 290 289 287 286 286 286 287 288 288 288 287 287 286 286 285 284 283 284 282 284 284 286 280 279 283 289 284 283 283 283
291 292 293 293 294 295 298 299 297 295 294 293 290 289 287 285 284 284 285 285 286 286 287 286 286 285 285 284 284 284 282 282 280 282 284 281 280 277 277 280 281 282 282
291 291 293 294 292 291 291 294 294 292 291 291 291 288 285 285 285 284 284 284 284 285 285 284 284 284 284 283 282 282 282 282 280 280 280 280 279 279 276 275 276 279 281
290 291 291 290 289 288 288 288 289 289 290 289 287 286 285 284 283 283 282 283 283 283 283 283 282 282 282 282 281 281 280 280 280 280 280 279 277 277 276 275 275 276 278
289 289 288 288 287 286 286 286 287 286 287 287 286 285 285 284 283 283 283 282 282 281 281 281 281 281 281 281 281 280 280 279 278 279 278 279 279 279 279 277 275 274 277
289 288 287 287 286 286 285 285 286 285 285 286 285 285 285 285 284 284 283 282 281 281 281 280 280 280 280 280 280 279 279 279 278 278 278 279 279 279 279 278 276 273 275
288 286 286 286 286 285 285 285 285 284 285 285 285 285 284 284 284 283 282 282 281 282 280 280 279 279 279 279 279 278 277 277 277 277 277 277 278 278 277 278 277 275 271
286 286 285 285 286 286 284 284 285 285 284 284 285 284 283 284 283 283 281 281 280 280 279 279 279 278 278 278 278 277 277 276 276 277 276 276 277 276 276 276 276 275 273
287 286 286 285 285 285 284 284 284 283 283 284 283 283 283 283 282 282 281 280 280 279 279 279 278 278 277 277 276 276 276 276 276 276 276 276 276 275 274 274 274 274 273
288 287 286 285 285 284 283 283 284 283 283 283 283 282 282 282 281 281 280 279 279 279 278 278 278 277 277 277 276 276 276 275 276 276 276 275 277 274 274 273 273 272 272
287 286 286 285 284 284 284 284 283 283 283 283 282 281 281 281 280 280 279 279 278 278 277 277 277 277 276 276 276 276 276 276 276 276 275 275 275 274 273 273 272 272 274
288 287 286 285 285 284 284 283 283 283 283 282 282 281 280 280 280 279 279 278 278 277 277 276 276 276 276 276 276 276 276 276 276 276 276 275 274 274 273 273 273 274 273
288 287 287 286 285 284 284 284 283 283 283 282 282 281 281 280 279 279 279 278 278 277 276 276 276 275 275 276 275 275 275 275 275 275 276 275 275 277 277 275 274 273 272
289 289 288 287 285 285 284 284 284 283 283 282 282 282 281 281 280 280 279 278 277 277 276 275 274 274 276 279 280 277 275 276 275 274 275 275 274 275 278 278 278 278 273
290 289 288 287 286 285 285 284 284 284 283 282 282 282 282 281 280 280 279 277 277 275 274 274 274 273 274 280 280 280 276 275 274 274 274 275 275 274 274 275 277 277 278
290 290 290 289 287 286 285 286 284 283 283 282 282 282 282 281 279 278 278 277 276 274 274 273 273 273 273 279 280 280 276 274 274 274 274 274 274 274 274 273 273 274 275
292 292 291 290 289 286 285 285 283 283 282 282 281 281 282 281 279 278 277 276 275 273 273 272 271 271 271 279 280 279 274 274 273 274 274 274 273 276 278 275 273 272 273
291 291 290 289 289 288 286 284 283 281 281 282 282 282 282 281 279 279 276 273 274 274 273 273 271 271 269 277 279 279 274 269 272 272 274 276 276 278 279 276 271 268 270
288 288 289 290 289 286 285 283 281 281 282 281 281 280 280 280 279 277 274 271 272 272 270 271 271 269 270 269 278 279 275 272 269 270 271 273 277 278 278 279 274 269 274
285 284 285 284 282 283 284 281 281 281 279 278 278 277 277 277 275 274 269 270 271 271 270 268 267 268 269 272 275 278 279 278 270 269 272 273 277 278 278 278 277 277 274
282 282 283 281 280 278 282 280 278 277 276 275 274 273 271 273 272 271 270 269 270 270 269 268 268 267 269 269 275 277 278 278 276 274 274 277 278 279 277 274 275 272 264
279 276 278 277 275 273 275 274 275 274 273 272 269 269 271 269 268 272 271 270 269 268 267 266 266 263 266 268 268 270 270 274 275 275 272 274 276 275 274 268 269 268 265
276 276 276 274 274 272 270 269 271 272 271 270 269 269 268 268 267 267 266 268 265 268 262 261 262 261 262 266 271 268 264 264 269 269 261 262 265 264 265 263 263 264 264
273 273 271 272 269 270 268 268 270 272 272 270 269 268 267 265 266 265 264 273 273 275 276 276 268 265 272 275 276 277 277 278 278 273 270 265 266 265 265 262 262 263 263

GFSMW_sfc_thetae_048.txt.gz
Theta_e
291 293 296 299 299 299 299 299 299 300 301 299 297 296 293 292 292 293 293 291 291 291 290 289 289 288 288 287 288 287 285 285 286 294 293 291 289 286 286 285 284 284 285
290 292 294 297 297 298 299 299 299 300 301 300 295 293 291 290 290 290 289 289 289 288 288 287 286 286 286 285 285 286 284 284 283 289 289 287 290 286 284 283 283 281 283
290 291 293 296 297 297 297 299 299 301 298 294 291 289 289 289 288 287 286 286 287 287 287 286 286 285 285 283 283 283 283 281 282 282 284 278 277 279 285 281 281 281 281
291 292 293 295 297 297 298 299 299 295 294 293 291 290 287 285 284 284 284 284 285 285 285 285 285 284 284 283 283 283 282 282 280 281 282 280 279 276 275 278 279 280 281
291 291 293 296 296 296 296 296 295 294 293 292 291 289 285 285 284 283 282 282 283 283 284 284 283 283 283 282 282 281 281 281 280 279 279 278 278 277 276 274 276 278 278
291 292 293 295 293 291 291 295 294 292 292 291 289 287 284 283 283 282 281 281 281 282 282 283 282 282 282 281 281 280 280 280 279 279 279 278 277 276 275 274 275 275 277
290 290 290 293 292 290 289 291 293 290 290 289 286 285 284 284 283 282 281 281 280 280 280 281 281 281 281 281 281 280 279 279 278 278 278 278 278 279 278 277 275 274 276
289 290 291 292 291 289 288 289 290 289 287 285 284 284 284 283 283 282 282 281 280 281 280 280 281 280 280 280 279 279 279 278 277 277 278 278 278 279 278 278 275 273 274
288 289 290 290 289 288 287 287 286 287 286 286 284 284 284 283 282 281 281 281 280 281 280 279 279 279 279 279 278 278 277 277 277 277 277 277 277 277 277 277 277 275 271
286 287 288 288 288 288 287 286 286 286 285 285 285 284 284 283 282 282 281 280 280 280 279 278 278 278 278 278 277 277 277 276 276 276 276 276 276 276 276 276 276 275 273
286 286 286 287 286 286 284 284 284 283 283 284 284 283 283 283 282 281 280 280 279 279 279 279 278 278 277 277 277 276 276 276 276 276 276 276 276 274 274 274 274 274 273
286 286 285 285 284 284 284 284 283 283 284 284 283 283 282 282 281 280 280 279 279 279 279 278 278 277 277 277 276 276 276 275 276 276 275 275 277 274 274 273 273 272 272
286 285 284 283 284 284 284 283 283 283 283 282 282 281 281 281 280 280 279 279 279 278 278 278 277 277 277 276 276 276 276 276 276 276 275 275 275 274 273 273 272 272 274
286 285 284 284 285 285 283 283 283 283 282 282 281 281 281 281 281 280 279 279 279 278 277 277 277 277 276 277 276 276 276 276 276 276 276 275 274 274 273 273 273 273 272
286 285 285 285 284 284 284 284 283 283 283 282 281 281 281 281 280 280 279 279 278 278 278 277 276 277 276 277 276 276 275 275 275 275 276 275 275 277 277 275 273 273 271
288 287 286 285 284 284 284 284 283 283 283 282 281 281 281 280 280 280 279 279 278 277 277 277 276 275 276 280 281 277 275 275 275 274 274 275 274 276 279 279 280 278 270
290 288 287 286 286 285 285 284 284 283 282 282 282 281 281 281 281 280 279 278 278 277 276 276 276 275 274 282 282 282 276 275 274 274 274 275 275 274 273 276 278 278 278
291 289 288 288 287 286 285 285 283 282 282 282 282 282 281 281 280 280 279 278 278 277 276 276 275 274 275 281 283 282 276 275 275 274 274 274 274 274 273 273 272 273 274
292 291 290 289 288 285 285 284 282 282 282 282 282 282 282 281 280 279 279 279 278 276 276 276 274 273 273 281 282 281 275 275 274 274 274 273 273 275 278 275 271 273 274
289 288 287 287 286 285 285 283 282 282 282 282 282 283 283 282 280 281 280 279 278 277 275 275 273 272 271 279 282 281 275 270 273 273 274 276 275 277 278 275 273 270 271
287 287 288 287 286 285 284 283 282 282 283 284 284 282 282 282 282 281 279 275 276 274 272 272 271 270 270 271 280 282 276 274 270 271 271 273 277 278 279 280 276 274 273
286 286 285 284 284 284 284 282 282 283 281 281 280 280 281 281 281 279 273 272 273 272 270 269 268 270 269 273 277 280 281 279 270 270 272 272 277 278 279 279 279 280 277
284 284 285 282 281 282 282 280 279 278 278 279 278 277 277 276 276 275 271 269 270 272 271 271 271 267 269 270 277 278 279 280 277 276 275 277 278 279 279 280 279 274 266
280 279 281 279 276 274 277 277 277 276 277 275 274 272 274 271 270 272 272 272 271 271 270 268 268 264 266 268 268 269 270 275 276 276 272 274 278 278 276 271 273 270 267
276 278 279 278 275 274 273 272 274 274 273 271 270 270 270 270 268 268 268 269 265 269 263 264 265 263 263 266 271 269 266 265 269 269 260 261 265 267 268 265 265 267 266
274 275 273 275 272 272 271 270 271 274 272 270 270 269 270 266 267 266 264 274 273 276 277 275 268 263 272 275 276 277 278 279 279 275 270 268 267 267 268 268 266 265 264